Location: Antioch Church
(34.9543°N, 88.5145°W)
Time: 06:35:10
(UTC+00:00)

CZ-4 R/B - Pass Details

Date: 11 December 2019
Orbit: 533 x 598 km, 97.7° (Epoch: 26 January)

Event Time Altitude Azimuth Distance (km) Brightness Sun altitude
Rises 01:01:59 0° 194° (SSW) 2,720 5.2 -27.8°
Reaches altitude 10° 01:04:26 10° 208° (SSW) 1,819 4.4 -28.3°
Maximum altitude 01:07:38 24° 263° (W) 1,156 3.6 -28.9°
Drops below altitude 10° 01:10:50 10° 318° (NW) 1,805 4.3 -29.6°
Sets 01:13:15 0° 333° (NNW) 2,694 5.1 -30.1°
